This demonstration page uses our WeatherBlox Daily Observations layout. Learn more.

Hourly Observations for June 13, 2020

Temp ( °F °C ) Dew Point ( °F °C ) Humidity (%) Winds ( mph kmh ) Pressure ( in mb ) Visibility ( mi km ) Precip ( " mm )
12:15 am 00:15 Clear 70 21 48 9 46 46 N 9 15 30.13 1020 10 16.0934 0 0
12:35 am 00:35 Clear 70 21 48 9 46 46 N 8 13 30.14 1021 10 16.0934 0 0
12:55 am 00:55 Clear 70 21 48 9 46 46 N 7 11 30.14 1021 10 16.0934 0 0
1:15 am 01:15 Clear 68 20 48 9 49 49 N 8 13 30.14 1021 10 16.0934 0 0
1:35 am 01:35 Clear 68 20 46 8 46 46 NNE 3 6 30.14 1021 10 16.0934 0 0
1:55 am 01:55 Clear 66 19 48 9 52 52 N 6 9 30.15 1021 10 16.0934 0 0
2:15 am 02:15 Clear 64 18 46 8 52 52 N 8 13 30.15 1021 10 16.0934 0 0
2:35 am 02:35 Clear 64 18 46 8 52 52 N 7 11 30.15 1021 10 16.0934 0 0
2:55 am 02:55 Clear 64 18 46 8 52 52 NNE 5 7 30.15 1021 10 16.0934 0 0
3:15 am 03:15 Clear 64 18 46 8 52 52 NNE 6 9 30.14 1021 10 16.0934 0 0
3:35 am 03:35 Clear 63 17 46 8 56 56 N 5 7 30.16 1021 10 16.0934 0 0
3:55 am 03:55 Clear 63 17 46 8 56 56 NE 3 6 30.16 1021 10 16.0934 0 0
4:15 am 04:15 Clear 61 16 50 10 68 68 N 5 7 30.17 1022 10 16.0934 0 0
4:35 am 04:35 Clear 61 16 50 10 68 68 N 3 6 30.18 1022 10 16.0934 0 0
4:55 am 04:55 Clear 59 15 50 10 72 72 NNE 5 7 30.18 1022 10 16.0934 0 0
5:15 am 05:15 Clear 57 14 50 10 77 77 NNE 3 6 30.18 1022 10 16.0934 0 0
5:35 am 05:35 Clear 59 15 50 10 72 72 NNE 3 6 30.19 1022 10 16.0934 0 0
5:55 am 05:55 Sunny 57 14 50 10 77 77 N 3 6 30.2 1023 10 16.0934 0 0
6:15 am 06:15 Sunny 57 14 50 10 77 77 NNE 3 6 30.2 1023 10 16.0934 0 0
6:35 am 06:35 Sunny 61 16 48 9 63 63 NNE 6 9 30.21 1023 10 16.0934 0 0
6:55 am 06:55 Sunny 61 16 48 9 63 63 NNE 6 9 30.21 1023 10 16.0934 0 0
7:15 am 07:15 Sunny 61 16 48 9 63 63 NNE 6 9 30.21 1023 10 16.0934 0 0
7:35 am 07:35 Sunny 63 17 46 8 56 56 NNE 6 9 30.22 1023 10 16.0934 0 0
7:55 am 07:55 Sunny 63 17 48 9 59 59 NNE 8 13 30.23 1024 10 16.0934 0 0
8:15 am 08:15 Sunny 64 18 46 8 52 52 NNE 9 15 30.22 1024 10 16.0934 0 0
8:35 am 08:35 Sunny 64 18 46 8 52 52 NNE 9 15 30.22 1024 10 16.0934 0 0
8:55 am 08:55 Sunny 64 18 48 9 56 56 NE 8 13 30.22 1024 10 16.0934 0 0
9:15 am 09:15 Sunny 66 19 50 10 56 56 NE 12 19 30.22 1023 10 16.0934 0 0
9:35 am 09:35 Sunny 66 19 46 8 49 49 NE 7 11 30.22 1023 10 16.0934 0 0
9:55 am 09:55 Sunny 68 20 48 9 49 49 NNE 6 9 30.22 1023 10 16.0934 0 0
10:15 am 10:15 Sunny 68 20 50 10 53 53 NE 5 7 30.22 1023 10 16.0934 0 0
10:35 am 10:35 Sunny 68 20 50 10 53 53 N 7 11 30.23 1024 10 16.0934 0 0
10:55 am 10:55 Sunny 70 21 50 10 50 50 NE 5 7 30.23 1024 10 16.0934 0 0
11:15 am 11:15 Sunny 70 21 50 10 50 50 NNE 8 13 30.23 1024 10 16.0934 0 0
11:35 am 11:35 Sunny 70 21 50 10 50 50 NE 3 6 30.23 1024 10 16.0934 0 0
11:55 am 11:55 Sunny 70 21 52 11 53 53 N 3 6 30.23 1024 10 16.0934 0 0
12:15 pm 12:15 Sunny 72 22 50 10 47 47 Calm 30.23 1024 10 16.0934 0 0
12:35 pm 12:35 Sunny 72 22 52 11 50 50 NNE 6 9 30.22 1023 10 16.0934 0 0
12:55 pm 12:55 Partly Cloudy 72 22 54 12 53 53 NE 7 11 30.22 1023 10 16.0934 0 0
1:35 pm 13:35 Partly Cloudy 72 22 52 11 50 50 N 8 13 30.22 1023 10 16.0934 0 0
1:55 pm 13:55 Mostly Cloudy 72 22 54 12 53 53 N 6 9 30.21 1023 10 16.0934 0 0
2:15 pm 14:15 Partly Cloudy 73 23 54 12 50 50 NNW 12 19 30.2 1023 10 16.0934 0 0
2:35 pm 14:35 Partly Cloudy 72 22 52 11 50 50 NNE 6 9 30.2 1023 10 16.0934 0 0
2:55 pm 14:55 Mostly Cloudy 75 24 54 12 47 47 N 9 15 30.2 1023 10 16.0934 0 0
3:15 pm 15:15 Partly Cloudy 73 23 54 12 50 50 NNW 8 13 30.2 1023 10 16.0934 0 0
3:35 pm 15:35 Partly Cloudy 73 23 54 12 50 50 NNE 8 13 30.19 1022 10 16.0934 0 0
3:55 pm 15:55 Partly Cloudy 73 23 52 11 47 47 NNE 7 11 30.19 1022 10 16.0934 0 0
4:15 pm 16:15 Partly Cloudy 73 23 54 12 50 50 NE 5 7 30.19 1022 10 16.0934 0 0
4:35 pm 16:35 Partly Cloudy 75 24 54 12 47 47 N 8 13 30.19 1022 10 16.0934 0 0
4:55 pm 16:55 Mostly Cloudy 75 24 54 12 47 47 NE 7 11 30.18 1022 10 16.0934 0 0
5:15 pm 17:15 Mostly Cloudy 73 23 52 11 47 47 NE 6 9 30.19 1022 10 16.0934 0 0
5:35 pm 17:35 Partly Cloudy 73 23 54 12 50 50 NNW 9 15 30.19 1022 10 16.0934 0 0
5:55 pm 17:55 Mostly Cloudy 75 24 54 12 47 47 NNW 8 13 30.18 1022 10 16.0934 0 0
6:15 pm 18:15 Partly Cloudy 73 23 52 11 47 47 N 10 17 30.18 1022 10 16.0934 0 0
6:35 pm 18:35 Sunny 73 23 52 11 47 47 N 7 11 30.18 1022 10 16.0934 0 0
6:55 pm 18:55 Sunny 73 23 52 11 47 47 N 7 11 30.19 1022 10 16.0934 0 0
7:15 pm 19:15 Sunny 73 23 52 11 47 47 N 6 9 30.19 1022 10 16.0934 0 0
7:35 pm 19:35 Sunny 72 22 52 11 50 50 NNE 6 9 30.19 1022 10 16.0934 0 0
7:55 pm 19:55 Sunny 72 22 52 11 50 50 N 7 11 30.2 1023 10 16.0934 0 0
8:15 pm 20:15 Sunny 72 22 52 11 50 50 N 6 9 30.2 1023 10 16.0934 0 0
8:35 pm 20:35 Sunny 70 21 52 11 53 53 N 3 6 30.2 1023 10 16.0934 0 0
8:55 pm 20:55 Clear 70 21 52 11 53 53 N 3 6 30.2 1023 10 16.0934 0 0
9:15 pm 21:15 Clear 70 21 54 12 57 57 Calm 30.2 1023 10 16.0934 0 0
9:35 pm 21:35 Clear 70 21 54 12 57 57 Calm 30.21 1023 10 16.0934 0 0
9:55 pm 21:55 Clear 68 20 54 12 60 60 Calm 30.22 1023 10 16.0934 0 0
10:15 pm 22:15 Clear 68 20 54 12 60 60 NE 5 7 30.23 1024 10 16.0934 0 0
10:35 pm 22:35 Clear 68 20 54 12 60 60 NE 3 6 30.23 1024 10 16.0934 0 0
10:55 pm 22:55 Clear 68 20 54 12 60 60 NE 5 7 30.24 1024 10 16.0934 0 0
11:15 pm 23:15 Clear 68 20 52 11 56 56 NE 5 7 30.23 1024 10 16.0934 0 0
11:35 pm 23:35 Mostly Cloudy 66 19 50 10 56 56 Calm 30.25 1024 10 16.0934 0 0
11:55 pm 23:55 Cloudy 66 19 50 10 56 56 ENE 3 6 30.24 1024 10 16.0934 0 0

Powered by AerisWeather